Back to catalog

STARLINK-30251

AliveCommunicationsVLEO
NORAD 57532·PAYLOAD·🇺🇸 United States

Launched Aug 8, 2023 from Vandenberg Space Force Base

Loading…

Next Passes (next 24 hours)

TLE

FreshSource: CelesTrak SupGP

Epoch: Sep 14, 2026, 20:59 UTC

1 57532C 23115M   26257.87479167  .00037869  00000+0  13715-2 0  2573
2 57532  43.0041  12.9439 0001992 277.1006 223.6307 15.27562814    13

Track STARLINK-30251 in real time with AllMySat

Download on the App Store